Погода в Новомихайловском

Россия / Смоленская область     54°21′48″N   31°37′02″E
темп.,
°C
ветер,
м/с
пор.,
м/с
влажн.,
%
обл.,
%
осадки,
мм/ч
давл.,
гПа
погр.,
м
4 июля, пн
пн400:00+19зсз2286100 0.2 101815
03:00+17сз2291100 0.7 101817
06:00+18ссз229134 0.3 101733
09:00+22сз1178100 0.3 1017243
12:00+25юз216737 0.1 1017772
15:00+27зюз1159100 1.2 10161286
18:00+26з1272100 0.1 1015457
21:00+21юз22829 0.1 101511
5 июля, вт
вт500:00+19зюз22855 0.1 101512
03:00+17ю22904 0.8 101613
06:00+18ююз229047 0.2 101544
09:00+22зюз348116 0.9 1016282
12:00+23зюз347768 2.5 1016341
15:00+25юз34693 3.4 1015858
18:00+24з347996 0.9 1015268
21:00+20сз22868 2.0 101511
6 июля, ср
ср600:00+17сз339054 0.0 101631
03:00+16ссз3392100 0.0 101544
06:00+16ссз2391100 0.0 101665
09:00+19с2281100 0.0 1015235
12:00+21ссз2274100 0.0 1015496
15:00+23всв2372100 0.0 1013830
18:00+15ссз81294100 7.4 1012408
21:00+13с5119450 7.6 1013355
7 июля, чт
чт700:00+13зсз379777 0.0 1016287
03:00+11сз2596100 0.0 1016102
06:00+12сз379599 0.0 1016189
09:00+16ссз3383100 0.0 1016400
12:00+20зсз2270100 0.0 10171128
15:00+20зсз2269100 0.2 1017951
18:00+20зсз2274100 0.3 1017396
21:00+16ссз228498 0.4 101613
8 июля, пт
пт800:00+14ссз2285100 0.0 101712
03:00+13ссв11851 0.0 101710
06:00+14св118583 0.0 101811
09:00+18в1276100 0.0 1018293
12:00+21ююв2264100 0.0 1017872
15:00+22зюз336464 0.4 10171255
18:00+21зсз3578100 2.1 1016780
21:00+17зсз2283100 2.2 101720